Temperature
17 17 17 17 17 16 16 17 17 17 17 17 17 17 17 17 17 17 17 17 17 17 17 17 17 17 18 18 18 18 18 18 18 18 18 18 18 18 18 18 18 18 18
17 17 17 17 17 16 16 16 16 17 17 17 17 17 17 17 17 17 17 17 17 17 17 17 17 17 17 18 18 18 18 18 18 18 18 18 18 18 18 18 18 18 18
17 17 17 17 17 16 16 16 16 16 17 17 17 17 17 17 17 17 17 17 17 17 17 17 17 17 17 18 18 18 18 18 18 18 18 18 18 18 18 18 18 18 18
17 16 17 17 16 16 16 16 16 16 16 16 16 17 17 17 17 17 17 17 17 17 17 17 17 17 17 17 17 18 18 17 17 17 17 17 18 18 18 18 18 18 18
17 17 17 16 16 16 16 16 16 16 16 16 16 16 16 17 17 17 17 17 17 17 17 17 17 17 17 17 17 17 17 17 17 17 17 17 17 18 18 18 18 18 18
17 17 17 17 16 16 16 16 16 16 16 16 16 16 16 16 17 16 16 16 16 16 17 17 17 17 17 17 17 17 17 17 17 17 17 17 17 17 18 18 18 18 18
17 17 17 17 17 16 16 16 16 16 16 16 16 16 16 16 16 16 16 16 16 16 16 16 16 17 17 17 17 17 17 17 17 17 17 17 17 17 17 17 17 17 17
17 17 17 17 17 17 16 16 16 16 16 16 16 16 16 16 16 16 16 16 16 16 16 16 16 17 17 17 17 17 17 17 17 17 17 17 17 17 17 17 17 17 17
18 17 17 17 17 17 17 16 16 16 16 16 16 16 16 16 16 16 16 16 16 16 16 16 16 16 17 17 17 17 17 17 17 17 17 17 17 17 17 17 17 17 17
18 18 18 17 17 17 17 17 16 16 16 16 16 16 16 16 16 16 16 16 16 16 16 16 16 16 16 16 16 16 16 16 17 17 17 17 17 17 17 17 17 17 17
18 18 18 18 17 17 17 17 16 16 16 16 16 16 16 16 16 16 16 16 16 16 16 16 16 16 16 16 16 16 16 16 16 16 16 16 17 17 17 17 17 17 17
18 18 18 18 18 17 17 17 17 16 16 16 16 16 16 16 16 16 16 16 16 16 16 16 16 16 16 16 16 16 16 16 16 16 16 16 16 16 16 17 17 17 17
19 19 18 18 18 18 17 17 17 17 16 16 16 16 16 16 16 16 16 16 16 16 16 16 16 16 16 16 16 16 16 16 16 16 16 16 16 16 16 16 16 16 16
19 19 19 18 18 18 18 17 17 17 17 17 17 16 16 16 16 16 16 16 16 16 16 16 16 16 16 16 16 16 16 16 16 16 15 16 16 16 16 16 16 16 16
19 19 19 18 18 18 18 17 17 17 17 17 17 17 17 16 16 16 16 16 16 16 16 16 16 16 16 16 15 15 15 15 15 15 15 15 15 15 15 16 16 15 16
19 19 19 18 18 18 18 17 17 17 17 17 17 17 17 17 16 16 16 16 16 16 16 16 16 16 15 15 15 15 15 15 15 15 15 15 15 15 15 15 15 15 15
19 19 18 18 18 18 17 17 17 17 17 17 17 17 17 17 16 16 16 16 16 16 16 15 16 15 15 15 15 15 15 15 15 15 15 15 15 15 15 15 15 15 15
19 19 18 18 18 18 17 17 17 17 17 17 17 17 17 17 16 16 16 16 16 16 16 15 15 15 15 15 15 15 15 15 15 15 15 15 15 15 15 15 15 15 15
19 19 18 18 18 17 17 17 17 17 17 17 16 16 16 16 16 16 16 16 16 16 15 15 15 15 15 15 15 15 15 15 15 15 15 14 14 14 14 14 14 14 14
19 19 18 18 18 17 17 17 17 17 17 16 16 16 16 16 16 16 16 16 16 15 15 15 15 15 15 15 15 15 15 15 15 15 14 14 14 14 14 14 14 14 14
19 19 18 18 17 17 17 17 17 16 16 16 16 16 16 16 16 16 16 16 16 15 15 15 15 15 15 15 15 15 15 15 15 15 14 14 14 14 14 14 14 14 14
19 19 18 18 17 17 17 17 16 16 16 16 16 16 16 16 16 16 16 16 15 15 15 15 15 15 15 15 15 15 15 14 14 14 14 14 14 14 13 13 13 13 14
19 18 18 18 17 17 17 17 16 16 16 16 16 16 16 16 16 16 16 15 15 15 15 15 15 15 15 15 15 15 15 14 14 14 14 14 14 14 13 13 13 13 13
18 18 18 18 17 17 17 16 16 16 16 16 16 16 16 16 16 15 15 15 15 15 15 15 15 15 15 15 15 15 15 15 15 14 14 14 14 14 13 13 13 13 13
18 18 18 18 17 17 17 16 16 16 16 16 16 16 16 16 15 15 15 15 15 15 15 15 15 15 15 15 15 15 15 15 15 15 14 14 14 14 14 13 13 13 13
18 18 18 17 17 17 17 16 16 16 16 16 16 16 16 16 16 16 15 15 15 15 15 15 15 15 15 15 15 15 15 15 15 15 14 14 14 14 14 13 13 13 13
Wind_Speed
7 10 10 10 10 10 10 10 11 11 11 12 12 11 11 11 11 12 11 11 12 12 11 11 11 10 9 9 9 9 9 9 8 9 9 9 9 9 9 9 9 9 10
8 12 11 10 10 10 10 10 11 11 11 12 12 12 12 12 12 11 11 11 11 11 11 11 10 10 9 9 9 8 8 8 7 7 8 9 9 9 10 11 10 9 10
9 11 11 10 10 10 10 10 11 11 12 12 12 12 12 12 11 11 11 11 11 11 11 11 10 10 9 9 8 8 8 7 7 7 7 7 9 10 11 11 10 10 10
10 12 11 10 10 10 11 11 11 12 12 12 12 12 12 12 11 11 11 11 11 11 12 11 10 10 10 9 8 8 7 7 7 7 7 9 9 11 11 11 10 10 10
11 13 11 10 10 10 11 12 11 11 12 12 12 12 11 11 11 10 11 10 11 11 11 11 10 10 10 9 8 7 7 7 7 9 10 12 10 11 12 11 10 9 9
10 13 11 10 10 11 11 11 11 11 11 11 11 12 11 11 11 10 11 10 10 10 10 10 10 11 10 10 9 8 7 8 8 9 11 11 10 12 12 11 11 10 9
10 12 12 11 11 11 11 11 11 11 11 11 10 11 11 11 10 10 11 10 10 11 11 11 10 11 10 10 9 8 8 9 7 9 11 11 11 12 13 12 11 9 9
9 10 11 11 11 11 11 11 11 10 10 9 9 9 10 10 9 10 10 10 10 11 10 11 11 11 11 10 10 10 10 10 10 10 12 11 12 12 12 11 10 10 9
7 8 9 12 12 12 11 10 9 8 8 7 7 7 8 8 9 10 10 10 11 10 10 10 11 11 11 10 10 10 10 11 9 9 11 11 12 12 11 11 11 10 9
6 6 6 9 12 12 11 10 9 7 6 5 5 5 6 7 8 10 11 10 10 10 10 10 9 9 9 9 8 8 9 10 10 11 10 11 12 11 10 10 10 10 9
6 5 5 6 8 9 11 10 9 8 6 5 4 4 4 5 8 9 10 10 9 9 8 8 7 7 6 6 6 6 7 8 10 11 11 12 12 11 11 11 10 10 10
4 4 5 5 5 6 6 9 7 7 6 5 4 4 4 7 8 10 9 8 7 7 5 4 5 4 3 3 4 6 6 9 10 10 12 13 12 12 11 11 10 10 10
5 5 5 4 5 6 4 6 4 5 4 4 4 5 5 6 8 9 7 6 5 4 3 3 3 3 4 5 5 6 8 9 10 11 12 14 13 12 12 11 11 11 10
6 5 4 4 5 5 6 4 4 3 3 4 4 7 6 3 4 4 4 4 4 5 4 4 4 6 7 8 8 7 8 8 10 10 11 13 12 12 12 12 11 11 11
6 4 6 5 6 5 4 2 4 4 3 5 4 5 6 4 3 3 4 4 4 5 4 4 5 6 6 7 8 9 7 9 10 10 10 12 12 12 12 12 11 10 11
6 5 5 5 5 5 4 3 4 5 5 5 5 5 7 6 4 3 4 4 4 5 5 6 6 5 6 6 6 8 7 8 8 9 9 10 11 11 11 11 11 10 11
6 6 6 5 6 6 5 4 5 5 6 4 4 5 6 6 6 5 4 4 4 6 7 6 6 5 4 5 6 6 6 7 7 7 7 8 9 10 11 12 12 12 12
6 7 6 5 6 6 5 4 3 5 5 4 4 5 5 7 9 6 3 3 5 6 5 3 3 3 4 4 4 4 4 5 6 6 7 7 8 8 10 12 13 13 13
6 7 6 5 5 6 5 4 4 4 3 4 5 6 6 7 8 6 3 3 6 4 3 4 4 4 4 3 3 3 4 4 4 6 6 7 8 8 8 10 12 13 14
5 6 7 5 5 6 4 3 3 3 2 4 4 5 6 6 7 6 3 4 5 4 3 4 3 3 2 2 3 4 3 3 4 5 5 7 8 8 9 9 9 10 13
4 5 7 5 5 5 3 2 2 2 2 3 3 4 4 5 6 5 3 4 4 3 3 4 3 2 2 2 2 2 2 3 3 3 4 4 6 7 8 9 9 9 9
4 3 5 5 6 5 3 2 2 2 2 2 2 4 5 5 5 4 3 3 3 3 4 4 3 2 1 1 1 1 1 2 2 2 2 3 4 6 7 8 9 9 9
4 4 4 5 6 5 4 2 2 2 1 2 3 2 3 5 5 5 4 3 3 3 3 3 2 2 1 1 1 1 1 1 1 2 2 3 3 3 4 7 9 10 10
4 4 4 4 5 5 4 2 1 2 2 2 2 2 2 4 4 3 3 3 3 3 3 2 2 1 1 1 1 2 2 2 1 1 1 2 3 3 4 5 7 9 10
4 3 4 4 5 4 4 2 1 2 2 2 3 3 2 2 3 2 3 3 2 3 3 3 3 2 1 1 1 1 2 2 1 2 1 1 1 2 3 4 5 7 9
5 4 3 4 4 3 3 3 2 2 2 2 2 2 2 2 1 1 3 2 2 2 2 2 3 3 2 2 2 2 2 1 1 1 1 1 1 1 2 3 4 5 7
Wind_Direction
83 85 69 61 56 56 58 60 59 61 63 64 65 66 67 67 67 70 72 74 72 73 72 72 72 71 70 67 67 66 69 73 76 76 78 77 77 78 74 71 73 72 73
93 94 78 63 59 60 62 62 62 63 64 66 67 66 67 69 70 75 75 75 74 73 73 72 72 72 74 74 73 72 70 70 76 79 79 76 76 79 75 72 72 75 71
95 94 81 67 64 63 65 66 67 67 65 67 68 67 67 70 72 75 78 76 74 72 70 70 69 71 76 78 75 71 67 63 64 72 74 84 82 78 77 77 75 74 72
89 87 81 74 71 70 71 71 71 69 69 68 68 67 66 71 75 76 78 77 74 71 70 69 67 71 73 74 72 69 62 53 50 60 67 76 76 78 77 76 74 73 71
89 89 86 81 78 76 75 74 73 70 71 70 68 68 67 70 74 78 80 79 77 75 74 70 68 69 70 71 69 63 53 44 47 61 69 71 70 78 76 74 70 71 70
99 100 97 90 87 85 81 78 75 73 71 70 69 68 67 69 73 76 78 79 80 79 79 75 70 70 69 66 61 52 46 41 49 64 74 74 74 78 75 71 69 68 68
104 107 108 106 99 93 87 82 78 76 72 70 69 69 68 71 75 77 76 75 78 78 79 80 76 72 68 62 54 49 45 41 61 72 74 74 76 77 73 68 67 67 67
109 113 121 122 113 104 94 88 86 80 75 72 72 72 73 74 79 82 80 78 80 79 79 80 78 75 70 62 55 51 46 42 59 72 75 73 78 78 72 66 63 63 64
107 118 131 140 129 118 109 101 98 93 85 81 80 81 83 82 84 88 85 82 83 83 82 81 79 77 73 66 58 52 46 44 49 62 73 72 77 74 71 67 63 58 57
111 114 122 133 138 135 129 124 122 120 112 106 103 98 100 98 93 92 90 88 87 88 87 86 85 83 79 72 63 55 50 51 57 63 69 76 75 71 67 63 61 55 51
100 116 118 119 128 134 136 136 148 149 150 147 155 154 159 134 111 100 96 98 96 94 95 96 95 95 90 79 69 56 48 62 66 67 66 76 74 70 64 61 60 55 51
112 117 117 120 118 109 102 128 146 141 151 163 146 140 143 108 97 104 109 110 111 109 110 118 120 122 117 104 84 65 57 64 65 67 67 72 71 70 65 60 58 55 51
115 102 108 104 100 97 94 101 98 97 115 116 108 104 89 109 125 126 135 144 146 134 110 108 117 95 85 82 82 82 69 70 68 65 66 66 65 65 63 60 57 53 51
90 93 93 87 96 92 85 89 101 90 94 86 77 89 83 72 95 113 111 113 115 96 75 68 70 69 62 67 71 73 72 75 77 74 70 67 64 64 62 59 56 52 52
111 109 93 83 84 86 81 83 96 76 61 81 66 84 90 75 74 90 101 97 88 91 91 74 64 62 58 56 62 64 65 70 78 79 77 73 69 64 60 56 55 54 57
111 109 99 92 85 92 93 84 81 83 76 59 44 67 90 90 82 67 82 81 81 78 79 80 74 66 66 60 58 60 57 65 75 85 92 81 74 69 63 58 57 62 64
112 98 83 90 90 83 73 62 73 68 72 64 36 37 74 83 85 79 78 80 76 76 74 71 75 72 75 70 62 58 57 62 70 73 86 97 89 77 70 64 64 66 69
107 103 97 83 86 86 85 67 70 72 67 67 49 31 52 73 87 75 67 76 78 74 78 79 62 68 68 62 60 55 58 56 64 69 75 82 89 88 80 72 70 69 69
108 109 101 82 88 86 87 91 67 72 75 71 58 32 33 57 83 86 73 73 81 79 71 75 61 64 75 73 84 76 61 51 45 55 57 67 77 82 89 82 75 71 68
112 116 109 101 93 95 73 73 76 57 54 64 69 52 44 47 70 87 97 81 77 77 75 82 86 78 88 84 79 82 82 84 54 48 43 56 67 73 83 90 84 74 69
117 116 118 126 109 96 86 75 76 68 61 53 56 66 56 51 67 78 77 77 76 77 78 86 73 77 69 75 78 70 65 79 69 62 51 53 55 62 78 86 84 80 75
125 118 120 114 109 100 95 106 110 99 95 96 56 46 46 52 60 79 100 101 96 90 72 75 75 44 38 59 75 81 74 42 15 70 65 62 66 60 60 77 82 82 81
127 122 114 116 113 112 106 77 89 96 88 89 83 61 49 53 48 46 65 100 118 122 111 103 99 93 37 349 43 72 87 98 338 34 66 69 65 65 62 70 74 76 77
130 128 119 114 111 107 104 81 90 103 106 122 124 120 95 78 68 41 55 79 103 108 113 125 113 93 82 7 359 31 64 110 131 54 15 57 69 70 68 67 67 74 77
111 113 112 109 103 103 105 105 73 89 102 105 114 114 108 88 75 51 61 63 83 106 114 104 97 79 82 52 32 28 30 22 28 119 92 31 58 67 83 81 76 83 87
103 105 111 111 107 113 130 147 144 128 132 124 120 133 135 122 109 98 93 88 84 93 103 102 104 101 76 50 42 46 66 58 5 54 99 117 108 120 95 89 83 84 91
Height
1527 1525 1525 1524 1523 1523 1523 1523 1523 1523 1522 1522 1522 1522 1522 1522 1522 1523 1523 1524 1524 1525 1526 1526 1527 1528 1528 1529 1529 1530 1530 1531 1531 1531 1531 1532 1532 1532 1533 1533 1534 1534 1535
1528 1526 1526 1525 1525 1524 1524 1524 1524 1524 1524 1524 1524 1523 1523 1523 1524 1524 1524 1525 1525 1526 1527 1528 1528 1529 1529 1530 1530 1531 1532 1532 1532 1533 1533 1533 1533 1534 1534 1534 1535 1535 1536
1528 1527 1527 1526 1526 1525 1525 1525 1525 1525 1525 1525 1525 1525 1525 1525 1525 1526 1526 1526 1527 1528 1528 1529 1530 1530 1531 1531 1532 1532 1533 1534 1534 1534 1534 1534 1534 1535 1535 1535 1536 1536 1537
1530 1528 1528 1527 1527 1527 1527 1527 1526 1526 1526 1526 1526 1526 1527 1527 1527 1527 1528 1528 1529 1529 1530 1530 1531 1532 1532 1533 1533 1534 1534 1535 1535 1535 1535 1535 1535 1536 1536 1536 1536 1537 1537
1530 1529 1529 1529 1528 1528 1528 1528 1528 1528 1528 1528 1528 1528 1528 1528 1529 1529 1529 1530 1530 1531 1531 1532 1532 1533 1533 1534 1534 1535 1536 1536 1537 1536 1536 1536 1536 1536 1537 1537 1537 1538 1538
1531 1531 1531 1530 1530 1530 1529 1529 1529 1529 1529 1530 1530 1529 1529 1530 1530 1530 1531 1531 1532 1532 1533 1533 1534 1534 1535 1535 1535 1536 1537 1537 1538 1538 1538 1538 1537 1538 1538 1538 1538 1538 1539
1533 1532 1532 1532 1532 1531 1531 1531 1531 1531 1531 1531 1531 1531 1531 1531 1531 1532 1532 1532 1533 1533 1534 1534 1535 1535 1536 1536 1536 1537 1538 1538 1539 1539 1539 1539 1539 1539 1539 1539 1539 1539 1539
1534 1534 1533 1533 1533 1533 1533 1533 1533 1533 1533 1533 1533 1533 1533 1533 1533 1533 1533 1534 1534 1534 1535 1536 1536 1537 1537 1537 1537 1538 1539 1539 1540 1540 1540 1540 1540 1540 1540 1540 1540 1540 1540
1536 1535 1535 1535 1535 1535 1535 1535 1535 1535 1535 1535 1535 1535 1535 1535 1535 1535 1535 1535 1535 1536 1536 1537 1538 1538 1538 1539 1539 1540 1540 1541 1541 1542 1541 1541 1541 1541 1541 1541 1541 1541 1540
1537 1537 1537 1537 1537 1537 1537 1537 1537 1537 1537 1537 1537 1537 1537 1537 1537 1537 1537 1537 1537 1537 1538 1538 1539 1540 1540 1540 1541 1541 1542 1542 1542 1542 1542 1542 1542 1542 1542 1542 1542 1541 1541
1538 1539 1539 1540 1540 1539 1539 1539 1539 1539 1539 1539 1539 1539 1539 1539 1539 1539 1539 1539 1539 1539 1540 1540 1541 1541 1542 1542 1543 1543 1543 1543 1543 1543 1543 1543 1543 1543 1542 1542 1542 1542 1541
1539 1540 1540 1541 1541 1541 1542 1541 1541 1541 1541 1541 1542 1542 1542 1542 1542 1542 1541 1541 1541 1541 1542 1542 1543 1543 1543 1544 1544 1544 1544 1544 1544 1544 1544 1544 1543 1543 1543 1543 1542 1542 1542
1540 1541 1542 1542 1542 1542 1543 1543 1543 1544 1543 1544 1544 1544 1544 1544 1544 1543 1543 1543 1543 1543 1544 1544 1544 1545 1545 1546 1546 1546 1546 1545 1545 1545 1545 1544 1544 1544 1543 1543 1543 1543 1542
1541 1542 1543 1543 1543 1544 1544 1544 1544 1545 1545 1545 1545 1546 1546 1546 1546 1546 1545 1546 1546 1546 1546 1546 1546 1546 1547 1547 1547 1547 1547 1546 1546 1546 1545 1545 1545 1545 1544 1544 1543 1543 1543
1542 1543 1544 1544 1544 1545 1545 1545 1546 1546 1546 1546 1546 1547 1547 1547 1548 1548 1547 1547 1547 1548 1548 1548 1548 1548 1548 1549 1548 1548 1548 1548 1547 1547 1546 1546 1546 1545 1545 1544 1544 1544 1543
1543 1544 1544 1545 1545 1546 1546 1546 1547 1547 1548 1548 1548 1549 1549 1549 1549 1549 1549 1549 1549 1549 1549 1549 1549 1549 1550 1550 1549 1549 1549 1549 1549 1548 1547 1547 1547 1546 1546 1545 1544 1544 1544
1543 1544 1545 1546 1546 1546 1547 1548 1548 1548 1549 1549 1549 1550 1550 1550 1550 1550 1550 1550 1550 1551 1550 1550 1550 1551 1551 1551 1551 1551 1550 1550 1550 1549 1549 1548 1548 1547 1547 1546 1545 1545 1545
1543 1544 1546 1546 1547 1547 1548 1548 1549 1549 1550 1550 1551 1551 1551 1551 1551 1551 1551 1551 1551 1552 1551 1552 1552 1552 1552 1552 1552 1552 1552 1552 1551 1551 1550 1550 1550 1549 1548 1547 1547 1546 1546
1544 1545 1546 1547 1547 1548 1549 1549 1550 1550 1551 1551 1551 1552 1552 1552 1552 1552 1552 1552 1552 1552 1552 1553 1553 1553 1553 1553 1554 1553 1553 1553 1553 1553 1552 1552 1551 1550 1549 1549 1548 1548 1547
1545 1545 1546 1547 1548 1548 1549 1550 1550 1551 1551 1551 1552 1552 1552 1553 1553 1553 1553 1553 1553 1553 1553 1554 1554 1554 1555 1555 1555 1555 1555 1555 1554 1554 1553 1553 1553 1552 1551 1550 1550 1549 1549
1545 1546 1546 1547 1548 1549 1549 1550 1550 1551 1552 1552 1552 1552 1553 1553 1553 1553 1554 1554 1554 1554 1554 1554 1555 1555 1556 1556 1556 1556 1556 1556 1556 1555 1555 1554 1554 1554 1553 1552 1551 1551 1550
1545 1546 1546 1548 1548 1549 1550 1550 1551 1551 1552 1552 1552 1553 1553 1553 1553 1554 1554 1554 1554 1554 1555 1555 1555 1556 1556 1557 1557 1557 1557 1559 1557 1557 1556 1556 1556 1555 1554 1554 1553 1552 1551
1545 1546 1547 1548 1548 1549 1550 1551 1551 1551 1551 1552 1552 1552 1553 1553 1554 1554 1554 1555 1555 1555 1555 1555 1556 1556 1557 1557 1557 1558 1558 1558 1558 1559 1558 1558 1557 1557 1556 1555 1554 1554 1553
1544 1546 1547 1548 1548 1549 1550 1550 1551 1551 1552 1552 1552 1553 1553 1554 1554 1554 1555 1555 1555 1556 1556 1556 1556 1556 1557 1558 1558 1558 1559 1558 1559 1559 1560 1559 1558 1558 1557 1556 1555 1555 1554
1544 1546 1547 1548 1548 1549 1550 1550 1551 1551 1552 1552 1553 1553 1553 1553 1554 1554 1555 1555 1555 1556 1556 1556 1556 1557 1557 1557 1558 1558 1558 1558 1559 1559 1559 1560 1559 1558 1558 1557 1556 1556 1555
1543 1545 1546 1547 1548 1549 1549 1550 1551 1551 1552 1552 1552 1553 1553 1553 1553 1554 1554 1555 1555 1555 1556 1557 1557 1557 1557 1557 1557 1558 1558 1558 1558 1559 1558 1559 1559 1559 1558 1558 1557 1556 1556